DW4238 Weather Reports


time (UTC)temp
F
wind
direction
speed
knots
gust
knots
rain 1hr
in
rain 24hr
in
rain mn
in
humidity
%
barometer
mb
20260906062103 80 191 1.7 3.5 0.00 0.00 0.00 88 1011.9
20260906061542 80 171 1.7 3.5 0.00 0.00 0.00 88 1012.0
20260906061052 80 171 0.0 4.3 0.00 0.00 0.00 89 1011.9
20260906060559 80 170 3.5 4.3 0.00 0.00 0.00 89 1011.9
20260906060034 80 170 3.5 4.3 0.00 0.00 0.00 89 1011.8
20260906055544 80 169 3.5 5.2 0.00 0.00 0.00 89 1011.7
20260906055034 80 163 0.9 4.3 0.00 0.00 0.00 89 1011.6
20260906054555 80 160 1.7 5.2 0.00 0.00 0.00 89 1011.8
20260906054105 80 161 2.6 5.2 0.00 0.00 0.00 89 1011.8
20260906053554 79 163 1.7 5.2 0.00 0.00 0.00 89 1011.9
20260906053108 79 164 3.5 6.1 0.00 0.00 0.00 89 1011.8
20260906052537 79 161 4.3 6.1 0.00 0.00 0.00 89 1012.0
20260906052049 79 168 3.5 6.1 0.00 0.00 0.00 89 1012.0
20260906051609 79 145 2.6 6.1 0.00 0.00 0.00 89 1011.9
20260906051058 79 144 3.5 6.1 0.00 0.00 0.00 89 1011.8
20260906050542 79 171 3.5 7.8 0.00 0.00 0.00 89 1011.8
20260906050042 79 156 4.3 7.8 0.00 0.00 0.00 89 1011.8
20260906045141 79 168 5.2 8.7 0.00 0.00 0.00 89 1011.9
20260906044547 79 160 6.1 7.8 0.00 0.00 0.00 88 1011.8
20260906044052 79 153 5.2 7.8 0.00 0.00 0.00 88 1012.0
20260906043601 79 146 3.5 7.8 0.00 0.00 0.00 88 1012.0
20260906043033 79 144 4.3 7.8 0.00 0.00 0.00 88 1012.1
20260906042538 79 145 3.5 7.0 0.00 0.00 0.00 87 1012.1
20260906041601 79 159 1.7 5.2 0.00 0.00 0.00 87 1011.9
20260906041114 79 157 2.6 7.0 0.00 0.00 0.00 87 1011.9
20260906040626 79 157 4.3 7.8 0.00 0.00 0.00 86 1011.9
20260906040046 79 153 4.3 7.0 0.00 0.00 0.00 86 1011.9
20260906035558 79 144 3.5 7.0 0.00 0.00 0.00 85 1012.1
20260906034625 79 146 3.5 6.1 0.00 0.00 0.00 85 1011.9
20260906034034 79 145 2.6 4.3 0.00 0.00 0.00 85 1011.9
20260906033532 80 142 3.5 7.0 0.00 0.00 0.00 84 1011.8
20260906032539 80 141 2.6 4.3 0.00 0.00 0.00 84 1011.8
20260906031600 80 140 0.0 4.3 0.00 0.00 0.00 83 1011.9
20260906031050 80 141 0.0 3.5 0.00 0.00 0.00 83 1011.9
20260906030117 80 149 3.5 6.1 0.00 0.00 0.00 83 1011.8
20260906025625 80 111 3.5 6.1 0.00 0.00 0.00 82 1011.9
20260906025129 80 136 3.5 7.0 0.00 0.00 0.00 82 1011.8
20260906024556 80 140 4.3 7.0 0.00 0.00 0.00 82 1011.6
20260906024047 81 142 3.5 7.8 0.00 0.00 0.00 82 1011.6
20260906023106 81 146 2.6 7.0 0.00 0.00 0.00 82 1011.4
20260906022611 81 150 3.5 6.1 0.00 0.00 0.00 82 1011.3
20260906022124 81 143 2.6 6.1 0.00 0.00 0.00 81 1011.3
20260906021555 81 146 3.5 7.0 0.00 0.00 0.00 81 1011.3
20260906021037 81 144 3.5 7.0 0.00 0.00 0.00 81 1011.1
20260906020106 81 146 2.6 6.1 0.00 0.00 0.00 81 1010.9
20260906015550 81 134 0.9 6.1 0.00 0.00 0.00 81 1010.8
20260906014551 82 133 2.6 7.8 0.00 0.00 0.00 80 1010.7
20260906014104 82 141 5.2 7.8 0.00 0.00 0.00 80 1010.5
20260906013647 82 140 3.5 7.0 0.00 0.00 0.00 80 1010.5
20260906013054 82 143 3.5 6.1 0.00 0.00 0.00 80 1010.5
20260906012606 82 142 3.5 7.0 0.00 0.00 0.00 80 1010.4
20260906011607 83 141 3.5 8.7 0.00 0.00 0.00 79 1010.5
20260906011103 83 153 2.6 6.1 0.00 0.00 0.00 79 1010.5
20260906010103 83 138 2.6 7.8 0.00 0.00 0.00 78 1010.4
20260906005607 83 145 4.3 7.8 0.00 0.00 0.00 78 1010.5
20260906005112 84 143 3.5 7.8 0.00 0.00 0.00 77 1010.5
20260906004543 84 128 4.3 8.7 0.00 0.00 0.00 77 1010.6
20260906004048 84 101 5.2 8.7 0.00 0.00 0.00 77 1010.7
20260906003107 84 140 3.5 10.4 0.00 0.00 0.00 76 1010.7
20260906002620 84 141 7.0 10.4 0.00 0.00 0.00 76 1010.8
20260906002110 85 135 2.6 7.8 0.00 0.00 0.00 75 1010.8
20260906001535 85 103 4.3 8.7 0.00 0.00 0.00 74 1010.8
20260906001046 85 126 4.3 9.6 0.00 0.00 0.00 74 1010.9
20260906000109 86 124 7.0 12.2 0.00 0.00 0.00 72 1010.8
20260905235556 86 115 6.1 13.0 0.00 0.00 0.00 72 1010.7
20260905234618 86 136 6.1 13.0 0.00 0.00 0.00 69 1010.6
20260905234047 87 135 6.1 13.0 0.00 0.00 0.00 68 1010.7
20260905233630 88 138 7.8 15.6 0.00 0.00 0.00 67 1010.7
20260905233036 89 181 8.7 13.9 0.00 0.00 0.00 66 1010.6
20260905232541 90 94 5.2 10.4 0.00 0.00 0.00 66 1010.4
20260905231614 90 69 5.2 13.9 0.00 0.00 0.00 65 1010.3
20260905231119 91 77 7.0 13.9 0.00 0.00 0.00 65 1010.2
20260905230624 91 63 3.5 5.2 0.00 0.00 0.00 66 1010.2
20260905230034 91 54 1.7 4.3 0.00 0.00 0.00 66 1010.2
20260905225539 91 63 2.6 6.1 0.00 0.00 0.00 66 1010.2
20260905224602 90 41 2.6 7.8 0.00 0.00 0.00 67 1010.1
20260905224111 90 63 3.5 8.7 0.00 0.00 0.00 67 1010.1
20260905223131 90 30 4.3 8.7 0.00 0.00 0.00 65 1010.2
20260905222621 91 34 4.3 9.6 0.00 0.00 0.00 64 1010.2
20260905222128 91 41 5.2 9.6 0.00 0.00 0.00 64 1010.2
20260905221553 91 13 5.2 9.6 0.00 0.00 0.00 64 1010.1
20260905221105 91 30 4.3 8.7 0.00 0.00 0.00 63 1010.0
20260905220603 92 14 6.1 10.4 0.00 0.00 0.00 61 1010.0
20260905220034 92 22 4.3 10.4 0.00 0.00 0.00 59 1010.0
20260905215538 94 33 5.2 9.6 0.00 0.00 0.00 55 1010.0
20260905214608 95 142 1.7 7.0 0.00 0.00 0.00 53 1010.2
20260905214112 95 144 4.3 7.0 0.00 0.00 0.00 52 1010.2
20260905213629 95 150 2.6 5.2 0.00 0.00 0.00 53 1010.2
20260905213056 95 86 2.6 7.8 0.00 0.00 0.00 54 1010.2
20260905212539 95 69 3.5 7.8 0.00 0.00 0.00 54 1010.2
20260905212151 95 120 3.5 7.8 0.00 0.00 0.00 54 1010.2
20260905211550 95 94 4.3 7.8 0.00 0.00 0.00 54 1010.2
20260905211101 95 71 3.5 7.0 0.00 0.00 0.00 56 1010.2
20260905210613 95 120 2.6 7.0 0.00 0.00 0.00 55 1010.2
20260905210034 95 98 3.5 13.0 0.00 0.00 0.00 56 1010.3
20260905205546 95 149 6.1 13.0 0.00 0.00 0.00 57 1010.3
20260905204613 94 84 2.6 7.8 0.00 0.00 0.00 57 1010.4
20260905204121 94 69 0.9 7.8 0.00 0.00 0.00 58 1010.4
20260905203100 94 88 2.6 6.1 0.00 0.00 0.00 57 1010.7
20260905202543 94 138 1.7 7.8 0.00 0.00 0.00 58 1010.8
20260905201605 94 148 4.3 7.8 0.00 0.00 0.00 57 1010.9
20260905201118 94 169 3.5 7.0 0.00 0.00 0.00 57 1011.0
20260905200629 93 200 2.6 8.7 0.00 0.00 0.00 58 1011.0
20260905200049 93 137 4.3 9.6 0.00 0.00 0.00 59 1011.2
20260905195604 93 138 0.9 6.1 0.00 0.00 0.00 59 1011.2
20260905195105 93 128 1.7 7.0 0.00 0.00 0.00 59 1011.2
20260905194536 93 129 2.6 7.8 0.00 0.00 0.00 58 1011.2
20260905194045 93 113 3.5 7.8 0.00 0.00 0.00 59 1011.2
20260905193650 93 106 4.3 7.8 0.00 0.00 0.00 59 1011.4
20260905193057 93 136 5.2 7.8 0.00 0.00 0.00 60 1011.4
20260905192547 93 144 2.6 6.1 0.00 0.00 0.00 60 1011.5
20260905192106 92 280 1.7 4.3 0.00 0.00 0.00 59 1011.7
20260905191539 92 145 0.0 4.3 0.00 0.00 0.00 63 1011.8
20260905191049 92 144 2.6 7.0 0.00 0.00 0.00 61 1011.9
20260905190116 92 108 1.7 6.1 0.00 0.00 0.00 63 1012.1
20260905185628 92 167 2.6 6.1 0.00 0.00 0.00 63 1012.1
20260905185107 91 154 0.0 7.0 0.00 0.00 0.00 65 1012.2
20260905184539 91 151 2.6 7.0 0.00 0.00 0.00 64 1012.4
20260905183540 91 169 3.5 7.8 0.00 0.00 0.00 64 1012.5
20260905183131 91 179 3.5 7.0 0.00 0.00 0.00 65 1012.5
20260905182535 91 183 3.5 5.2 0.00 0.00 0.00 66 1012.7
20260905181557 90 192 2.6 7.8 0.00 0.00 0.00 69 1012.9
20260905181114 90 121 2.6 7.8 0.00 0.00 0.00 69 1012.9
20260905180626 90 132 3.5 7.8 0.00 0.00 0.00 69 1013.0
20260905180046 89 123 2.6 9.6 0.00 0.00 0.00 71 1013.2
20260905175536 89 153 6.1 9.6 0.00 0.00 0.00 73 1013.2
20260905174557 89 146 0.9 7.0 0.00 0.00 0.00 73 1013.3
20260905174109 88 355 3.5 7.8 0.00 0.00 0.00 75 1013.4
20260905173131 87 140 0.9 7.0 0.00 0.00 0.00 77 1013.6
20260905172622 87 66 0.9 3.5 0.00 0.00 0.00 78 1013.7
20260905172124 86 313 1.7 5.2 0.00 0.00 0.00 78 1013.8
20260905171556 86 313 3.5 7.0 0.00 0.00 0.00 79 1013.8
20260905171100 86 327 3.5 7.8 0.00 0.00 0.00 78 1013.8
20260905170607 86 334 5.2 7.8 0.00 0.00 0.00 78 1013.8
20260905170036 86 305 4.3 7.0 0.00 0.00 0.00 76 1013.8
20260905165540 86 322 4.3 7.8 0.00 0.00 0.00 77 1013.9
20260905164610 87 315 4.3 7.0 0.00 0.00 0.00 76 1013.8
20260905164115 88 339 3.5 5.2 0.00 0.00 0.00 75 1013.8
20260905163626 89 294 0.0 2.6 0.00 0.00 0.00 74 1013.8
20260905163051 88 279 0.0 2.6 0.00 0.00 0.00 74 1013.9
20260905162604 88 278 0.0 3.5 0.00 0.00 0.00 76 1013.9
20260905162110 87 270 1.7 6.1 0.00 0.00 0.00 76 1013.9
20260905161536 87 254 0.9 6.1 0.00 0.00 0.00 75 1013.8
20260905161047 87 252 2.6 6.1 0.00 0.00 0.00 77 1013.8
20260905160108 86 243 1.7 4.3 0.00 0.00 0.00 79 1013.8
20260905155619 86 216 0.9 4.3 0.00 0.00 0.00 79 1013.8
20260905155124 86 215 3.5 6.1 0.00 0.00 0.00 79 1013.8
20260905154556 87 224 4.3 6.1 0.00 0.00 0.00 79 1013.8
20260905154108 87 244 3.5 7.0 0.00 0.00 0.00 79 1013.8
20260905153602 86 249 2.6 5.2 0.00 0.00 0.00 80 1013.9
20260905153033 86 255 3.5 4.3 0.00 0.00 0.00 82 1013.9
20260905152539 85 239 2.6 4.3 0.00 0.00 0.00 82 1013.9
20260905151608 85 234 3.5 6.1 0.00 0.00 0.00 84 1013.9
20260905151052 85 223 4.3 6.1 0.00 0.00 0.00 84 1013.9
20260905150645 85 240 3.5 6.1 0.00 0.00 0.00 85 1013.9
20260905150049 84 221 3.5 6.1 0.00 0.00 0.00 86 1013.9
20260905145601 84 240 2.6 6.1 0.00 0.00 0.00 86 1013.8
20260905144604 84 209 0.9 4.3 0.00 0.00 0.00 88 1013.8
20260905144049 84 201 0.9 3.5 0.00 0.00 0.00 88 1013.8
20260905143118 83 197 0.9 5.2 0.00 0.00 0.00 89 1013.8
20260905142602 83 197 2.6 5.2 0.00 0.00 0.00 89 1013.8
20260905142115 82 196 0.9 3.5 0.00 0.00 0.00 90 1013.8
20260905141542 82 195 1.7 3.5 0.00 0.00 0.00 90 1013.8
20260905141050 82 193 2.6 3.5 0.00 0.00 0.00 90 1013.8
20260905140122 82 158 0.0 0.0 0.00 0.00 0.00 91 1013.9
20260905135622 81 155 0.0 0.0 0.00 0.00 0.00 91 1013.8
20260905135033 81 155 0.0 0.0 0.00 0.00 0.00 91 1013.7
20260905134539 81 155 0.0 0.0 0.00 0.00 0.00 91 1013.6
20260905134051 81 154 0.0 0.0 0.00 0.00 0.00 91 1013.7
20260905133113 80 155 0.0 1.7 0.00 0.00 0.00 92 1013.5
20260905132606 80 155 0.0 1.7 0.00 0.00 0.00 93 1013.5
20260905132109 79 155 0.0 0.0 0.00 0.00 0.00 93 1013.6
20260905131538 79 155 0.0 0.0 0.00 0.00 0.00 93 1013.6
20260905131039 79 155 0.0 0.0 0.00 0.00 0.00 93 1013.4
20260905130652 79 155 0.0 0.0 0.00 0.00 0.00 93 1013.4
20260905130058 78 155 0.0 0.0 0.00 0.00 0.00 93 1013.3
20260905125603 78 155 0.0 0.0 0.00 0.00 0.00 93 1013.3
20260905124632 78 155 0.0 0.0 0.00 0.00 0.00 93 1013.2
20260905124137 77 155 0.0 0.0 0.00 0.00 0.00 93 1013.1
20260905123627 77 155 0.0 0.0 0.00 0.00 0.00 93 1013.0
20260905123051 77 155 0.0 0.0 0.00 0.00 0.00 93 1012.9
20260905122602 77 155 0.0 0.0 0.00 0.00 0.00 92 1012.9
20260905121625 77 155 0.0 0.0 0.00 0.00 0.00 92 1012.9
20260905121137 77 155 0.0 0.0 0.00 0.00 0.00 92 1012.8
20260905120627 77 155 0.0 0.0 0.00 0.00 0.00 92 1012.7
20260905120047 77 155 0.0 0.0 0.00 0.00 0.00 92 1012.6
20260905115559 77 155 0.0 0.0 0.00 0.00 0.00 92 1012.6
20260905114622 77 155 0.0 0.0 0.00 0.00 0.00 92 1012.7
20260905114037 77 155 0.0 0.0 0.00 0.00 0.00 92 1012.6
20260905113541 77 155 0.0 0.0 0.00 0.00 0.00 92 1012.6
20260905113153 77 155 0.0 0.0 0.00 0.00 0.00 92 1012.5
20260905112624 77 155 0.0 0.0 0.00 0.00 0.00 92 1012.4
20260905111623 77 155 0.0 0.0 0.00 0.00 0.00 92 1012.3
20260905111128 78 155 0.0 0.0 0.00 0.00 0.00 92 1012.3
20260905110635 78 155 0.0 0.0 0.00 0.00 0.00 92 1012.3
20260905110101 78 155 0.0 0.0 0.00 0.00 0.00 92 1012.2
20260905105544 78 155 0.0 0.0 0.00 0.00 0.00 92 1012.2
20260905104610 78 155 0.0 0.0 0.00 0.00 0.00 91 1012.2
20260905104121 78 155 0.0 0.0 0.00 0.00 0.00 91 1012.1
20260905103626 78 155 0.0 0.0 0.00 0.00 0.00 91 1012.1
20260905103050 78 155 0.0 0.0 0.00 0.00 0.00 91 1012.2
20260905102555 78 155 0.0 0.0 0.00 0.00 0.00 92 1012.1
20260905102103 78 155 0.0 0.0 0.00 0.00 0.00 92 1012.1
20260905101534 78 155 0.0 0.0 0.00 0.00 0.00 92 1012.1
20260905101039 78 155 0.0 0.0 0.00 0.00 0.00 92 1012.0
20260905100112 78 155 0.0 0.0 0.00 0.00 0.00 91 1012.1
20260905095617 78 155 0.0 0.0 0.00 0.03 0.00 91 1012.1
20260905095130 78 155 0.0 0.0 0.00 0.03 0.00 91 1012.1
20260905094550 78 155 0.0 0.0 0.00 0.03 0.00 91 1012.1
20260905094102 78 155 0.0 0.0 0.00 0.03 0.00 91 1012.1
20260905093611 78 155 0.0 0.0 0.00 0.03 0.00 91 1012.2
20260905093033 78 155 0.0 0.0 0.00 0.03 0.00 91 1012.1
20260905092119 78 155 0.0 0.0 0.00 0.03 0.00 91 1012.2
20260905091550 78 155 0.0 0.0 0.00 0.03 0.00 91 1012.3
20260905091055 78 155 0.0 0.0 0.00 0.03 0.00 91 1012.2
20260905090603 78 155 0.0 0.0 0.00 0.03 0.00 91 1012.2
20260905090034 78 155 0.0 0.0 0.00 0.03 0.00 92 1012.2
20260905085539 78 155 0.0 0.0 0.00 0.04 0.00 92 1012.2
20260905084608 78 155 0.0 0.0 0.00 0.04 0.00 91 1012.0
20260905084113 78 155 0.0 2.6 0.00 0.04 0.00 91 1012.1
20260905083626 78 155 0.9 4.3 0.00 0.04 0.00 91 1012.0
20260905083049 78 155 1.7 4.3 0.00 0.04 0.00 91 1012.1
20260905082601 78 156 1.7 4.3 0.00 0.04 0.00 91 1012.1
20260905081038 79 157 3.5 5.2 0.00 0.04 0.00 90 1012.0
20260905080100 79 159 0.9 4.3 0.00 0.04 0.00 90 1012.0
20260905075549 79 161 2.6 4.3 0.00 0.04 0.00 90 1012.1
20260905074615 80 165 3.5 7.0 0.00 0.04 0.00 90 1012.1
20260905074106 80 166 2.6 7.0 0.00 0.04 0.00 90 1012.1
20260905073104 80 175 2.6 7.0 0.00 0.04 0.00 90 1012.1
20260905072615 80 186 2.6 7.0 0.00 0.04 0.00 89 1012.1
20260905071637 80 178 4.3 7.8 0.00 0.04 0.00 89 1012.2
20260905071128 80 188 4.3 7.8 0.00 0.04 0.00 89 1012.3
20260905070632 80 186 4.3 7.0 0.00 0.04 0.00 89 1012.2
20260905070059 80 183 3.5 6.1 0.00 0.04 0.00 89 1012.3
20260905065548 80 178 3.5 5.2 0.00 0.04 0.00 89 1012.5
20260905065058 80 184 2.6 5.2 0.00 0.04 0.00 89 1012.5
20260905064550 80 172 3.5 5.2 0.00 0.04 0.00 89 1012.5
20260905064040 80 175 3.5 5.2 0.00 0.04 0.00 89 1012.6
20260905063534 80 177 2.6 4.3 0.00 0.04 0.00 88 1012.6
20260905063047 80 184 3.5 6.1 0.00 0.04 0.00 88 1012.7
20260905062538 80 174 3.5 6.1 0.00 0.04 0.00 88 1012.7